Location: ??????????
(54.8537°N, 38.8755°E)
Time: 23:07:02
(UTC+00:00)

Tiros 1 - Pass Details

Date: 14 September 2024
Orbit: 623 x 654 km, 48.4° (Epoch: 09 October)

Event Time Altitude Azimuth Distance (km) Brightness Sun altitude
Rises 12:50:37 0° 196° (SSW) 2,890 11.2 23.1°
Reaches altitude 10° 12:54:15 10° 166° (SSE) 1,990 9.9 22.7°
Maximum altitude 12:56:04 12° 143° (SE) 1,848 9.5 22.4°
Drops below altitude 10° 12:57:54 10° 119° (ESE) 1,999 9.4 22.2°
Sets 13:01:33 0° 90° (E) 2,917 10.0 21.7°
